AMAZONAS 5 (42934 NORAD) Tracking and Keplerian Element Data

This shows tracking and keplerian element data for the satellite.

Feedback or suggestion? Click here.




ElementValue
Catalog42934
NameAMAZONAS 5
Epoch Orbit2467
Epoch Day156.14260341
Epoch Year2024
RAAN39.1377
Inclination0.0414
Eccentricity0.0005001
Argument of Perigee25.8163
Mean Anonmoly178.4351
Mean Motion1.00267074
Decay Rate-2.78E-06
L11 42934U 17053A 24156.14260341 -.00000278 00000+0 00000+0 0 9993
L22 42934 0.0414 39.1377 0005001 25.8163 178.4351 1.00267074 24679



Live tracking and technical data element details for AMAZONAS 5 (NORAD 42934). AMAZONAS 5 can be tracked NOW for your location showing map with azimuth and elevation plus other details from your city location.







IsCatalogInMostPopularTable: catalog: 42934, numindb: 672
Update: records affected: 1



GetName: 42934 AMAZONAS 5

Hit Count: updated at: Tue, 18 Jun 2024 00:30:36 GMT